Погода в Подлесье

Беларусь     53°04′51″N   26°21′14″E
темп.,
°C
ветер,
м/с
пор.,
м/с
влажн.,
%
обл.,
%
осадки,
мм/ч
давл.,
гПа
погр.,
м
11 апреля, вс
вс1100:00+9ю5116696 0.0 1020312
03:00+7ю4107591 0.0 1021254
06:00+5ю498415 0.0 1022170
09:00+9ю5107080 0.0 1023323
12:00+14ююз6854100 0.0 1023783
15:00+16ю6845100 0.0 10241509
18:00+15ююв584999 0.0 1023875
21:00+9юв4116337 0.0 1024184
12 апреля, пн
пн1200:00+8ююв41366100 0.0 1025288
03:00+7юв5136964 0.0 1025280
06:00+5юв41174100 0.0 1025237
09:00+8юв6126496 0.0 1024392
12:00+12ююв794677 0.0 10231065
15:00+15ююв6837100 0.0 10211370
18:00+14ююв4846100 0.0 1020356
21:00+11юв3753100 0.0 1021131
13 апреля, вт
вт1300:00+9ююв476212 0.0 1020109
03:00+7ююв366862 0.0 102094
06:00+6ю337310 0.0 102038
09:00+8юз1171100 0.0 102181
12:00+12ссз327795 0.0 1020590
15:00+12ссз547288 0.0 1020824
18:00+11ссз667484 0.0 1019584
21:00+7с61187100 0.0 1020369
14 апреля, ср
ср1400:00+6с61186100 0.0 1019378
03:00+5с61291100 1.8 1017385
06:00+5с61195100 2.4 1016408
09:00+5с61194100 3.8 1016409
12:00+5ссв71195100 1.8 1015354
15:00+6ссв589597 2.9 1015258
18:00+5ссв579551 0.9 1015199
21:00+5с5996100 0.9 1015208
15 апреля, чт
чт1500:00+6ссв4796100 0.1 1015179
03:00+6ссв599898 0.3 1015245
06:00+6ссв4897100 0.0 1016326
09:00+6ссв4695100 0.1 1017274
12:00+7ссв5585100 0.0 1017494
15:00+4с5791100 0.1 1018417
18:00+3с5892100 0.1 1019466
21:00+3с4895100 0.5 1019419